owner,sensor,date,latitude,longitude,vertical_datum,sea_water_temperature,qcFlag 
TABS,ioos:station:wmo:42050:1,2002-09-01T00:00:00Z,28.8425,-94.2433,-2.0,30.02,11111222 
TABS,ioos:station:wmo:42050:1,2002-09-01T00:30:00Z,28.8425,-94.2433,-2.0,30.04,11111222 
TABS,ioos:station:wmo:42050:1,2002-09-01T01:00:00Z,28.8425,-94.2433,-2.0,30.04,11111222 
TABS,ioos:station:wmo:42050:1,2002-09-01T01:30:00Z,28.8425,-94.2433,-2.0,30.07,11111222 
TABS,ioos:station:wmo:42050:1,2002-09-01T02:00:00Z,28.8425,-94.2433,-2.0,30.08,11111222 
TABS,ioos:station:wmo:42050:1,2002-09-01T02:30:00Z,28.8425,-94.2433,-2.0,30.12,11111222 
TABS,ioos:station:wmo:42050:1,2002-09-01T03:00:00Z,28.8425,-94.2433,-2.0,30.14,11111222 
TABS,ioos:station:wmo:42050:1,2002-09-01T03:30:00Z,28.8425,-94.2433,-2.0,30.12,11111222 
TABS,ioos:station:wmo:42050:1,2002-09-01T04:00:00Z,28.8425,-94.2433,-2.0,30.09,11111222 
TABS,ioos:station:wmo:42050:1,2002-09-01T04:30:00Z,28.8425,-94.2433,-2.0,30.06,11111222 
TABS,ioos:station:wmo:42050:1,2002-09-01T05:00:00Z,28.8425,-94.2433,-2.0,30.03,11111222 
TABS,ioos:station:wmo:42050:1,2002-09-01T05:30:00Z,28.8425,-94.2433,-2.0,30.01,11111222 
TABS,ioos:station:wmo:42050:1,2002-09-01T06:00:00Z,28.8425,-94.2433,-2.0,29.98,11111222 
TABS,ioos:station:wmo:42050:1,2002-09-01T06:30:00Z,28.8425,-94.2433,-2.0,29.99,11111222 
TABS,ioos:station:wmo:42050:1,2002-09-01T07:00:00Z,28.8425,-94.2433,-2.0,29.97,11111222 
TABS,ioos:station:wmo:42050:1,2002-09-01T07:30:00Z,28.8425,-94.2433,-2.0,29.97,11111222 
TABS,ioos:station:wmo:42050:1,2002-09-01T08:00:00Z,28.8425,-94.2433,-2.0,29.95,11111222 
TABS,ioos:station:wmo:42050:1,2002-09-01T08:30:00Z,28.8425,-94.2433,-2.0,29.94,11111222 
TABS,ioos:station:wmo:42050:1,2002-09-01T09:00:00Z,28.8425,-94.2433,-2.0,29.95,11111222 
TABS,ioos:station:wmo:42050:1,2002-09-01T09:30:00Z,28.8425,-94.2433,-2.0,29.94,11111222 
TABS,ioos:station:wmo:42050:1,2002-09-01T10:00:00Z,28.8425,-94.2433,-2.0,29.93,11111222 
TABS,ioos:station:wmo:42050:1,2002-09-01T10:30:00Z,28.8425,-94.2433,-2.0,29.93,11111222 
TABS,ioos:station:wmo:42050:1,2002-09-01T11:00:00Z,28.8425,-94.2433,-2.0,29.92,11111222 
TABS,ioos:station:wmo:42050:1,2002-09-01T11:30:00Z,28.8425,-94.2433,-2.0,29.91,11111222 
TABS,ioos:station:wmo:42050:1,2002-09-01T12:00:00Z,28.8425,-94.2433,-2.0,29.91,11111222 
TABS,ioos:station:wmo:42050:1,2002-09-01T12:30:00Z,28.8425,-94.2433,-2.0,29.91,11111222 
TABS,ioos:station:wmo:42050:1,2002-09-01T13:00:00Z,28.8425,-94.2433,-2.0,29.91,11111222 
TABS,ioos:station:wmo:42050:1,2002-09-01T13:30:00Z,28.8425,-94.2433,-2.0,29.92,11111222 
TABS,ioos:station:wmo:42050:1,2002-09-01T14:00:00Z,28.8425,-94.2433,-2.0,29.92,11111222 
TABS,ioos:station:wmo:42050:1,2002-09-01T14:30:00Z,28.8425,-94.2433,-2.0,29.92,11111222 
TABS,ioos:station:wmo:42050:1,2002-09-01T15:00:00Z,28.8425,-94.2433,-2.0,29.92,11111222 
TABS,ioos:station:wmo:42050:1,2002-09-01T15:30:00Z,28.8425,-94.2433,-2.0,29.93,11111222 
TABS,ioos:station:wmo:42050:1,2002-09-01T16:00:00Z,28.8425,-94.2433,-2.0,29.94,11111222 
TABS,ioos:station:wmo:42050:1,2002-09-01T16:30:00Z,28.8425,-94.2433,-2.0,29.99,11111222 
TABS,ioos:station:wmo:42050:1,2002-09-01T17:00:00Z,28.8425,-94.2433,-2.0,30.02,11111222 
TABS,ioos:station:wmo:42050:1,2002-09-01T17:30:00Z,28.8425,-94.2433,-2.0,30.03,11111222 
TABS,ioos:station:wmo:42050:1,2002-09-01T18:00:00Z,28.8425,-94.2433,-2.0,30.04,11111222 
TABS,ioos:station:wmo:42050:1,2002-09-01T18:30:00Z,28.8425,-94.2433,-2.0,30.05,11111222 
TABS,ioos:station:wmo:42050:1,2002-09-01T19:00:00Z,28.8425,-94.2433,-2.0,30.07,11111222 
TABS,ioos:station:wmo:42050:1,2002-09-01T19:30:00Z,28.8425,-94.2433,-2.0,30.08,11111222 
TABS,ioos:station:wmo:42050:1,2002-09-01T20:00:00Z,28.8425,-94.2433,-2.0,30.1,11111222 
TABS,ioos:station:wmo:42050:1,2002-09-01T20:30:00Z,28.8425,-94.2433,-2.0,30.11,11111222 
TABS,ioos:station:wmo:42050:1,2002-09-01T21:00:00Z,28.8425,-94.2433,-2.0,30.12,11111222 
TABS,ioos:station:wmo:42050:1,2002-09-01T21:30:00Z,28.8425,-94.2433,-2.0,30.11,11111222 
TABS,ioos:station:wmo:42050:1,2002-09-01T22:00:00Z,28.8425,-94.2433,-2.0,30.09,11111222 
TABS,ioos:station:wmo:42050:1,2002-09-01T22:30:00Z,28.8425,-94.2433,-2.0,30.07,11111222 
TABS,ioos:station:wmo:42050:1,2002-09-02T04:30:00Z,28.8425,-94.2433,-2.0,29.97,11111222 
TABS,ioos:station:wmo:42050:1,2002-09-02T05:00:00Z,28.8425,-94.2433,-2.0,29.97,11111222 
TABS,ioos:station:wmo:42050:1,2002-09-02T05:30:00Z,28.8425,-94.2433,-2.0,29.91,11111222 
TABS,ioos:station:wmo:42050:1,2002-09-02T06:00:00Z,28.8425,-94.2433,-2.0,29.9,11111222 
TABS,ioos:station:wmo:42050:1,2002-09-02T06:30:00Z,28.8425,-94.2433,-2.0,29.92,11111222 
TABS,ioos:station:wmo:42050:1,2002-09-02T07:00:00Z,28.8425,-94.2433,-2.0,29.92,11111222 
TABS,ioos:station:wmo:42050:1,2002-09-02T07:30:00Z,28.8425,-94.2433,-2.0,29.91,11111222 
TABS,ioos:station:wmo:42050:1,2002-09-02T08:00:00Z,28.8425,-94.2433,-2.0,29.91,11111222 
TABS,ioos:station:wmo:42050:1,2002-09-02T08:30:00Z,28.8425,-94.2433,-2.0,29.91,11111222 
TABS,ioos:station:wmo:42050:1,2002-09-02T09:00:00Z,28.8425,-94.2433,-2.0,29.9,11111222 
TABS,ioos:station:wmo:42050:1,2002-09-02T09:30:00Z,28.8425,-94.2433,-2.0,29.89,11111222 
TABS,ioos:station:wmo:42050:1,2002-09-02T10:00:00Z,28.8425,-94.2433,-2.0,29.89,11111222 
TABS,ioos:station:wmo:42050:1,2002-09-02T10:30:00Z,28.8425,-94.2433,-2.0,29.89,11111222 
TABS,ioos:station:wmo:42050:1,2002-09-02T11:00:00Z,28.8425,-94.2433,-2.0,29.88,11111222 
TABS,ioos:station:wmo:42050:1,2002-09-02T11:30:00Z,28.8425,-94.2433,-2.0,29.87,11111222 
TABS,ioos:station:wmo:42050:1,2002-09-02T12:00:00Z,28.8425,-94.2433,-2.0,29.86,11111222 
TABS,ioos:station:wmo:42050:1,2002-09-02T12:30:00Z,28.8425,-94.2433,-2.0,29.85,11111222 
TABS,ioos:station:wmo:42050:1,2002-09-02T13:00:00Z,28.8425,-94.2433,-2.0,29.85,11111222 
TABS,ioos:station:wmo:42050:1,2002-09-02T13:30:00Z,28.8425,-94.2433,-2.0,29.86,11111222 
TABS,ioos:station:wmo:42050:1,2002-09-02T14:00:00Z,28.8425,-94.2433,-2.0,29.87,11111222 
TABS,ioos:station:wmo:42050:1,2002-09-02T14:30:00Z,28.8425,-94.2433,-2.0,29.87,11111222 
TABS,ioos:station:wmo:42050:1,2002-09-02T15:00:00Z,28.8425,-94.2433,-2.0,29.88,11111222 
TABS,ioos:station:wmo:42050:1,2002-09-02T15:30:00Z,28.8425,-94.2433,-2.0,29.91,11111222 
TABS,ioos:station:wmo:42050:1,2002-09-02T16:00:00Z,28.8425,-94.2433,-2.0,29.87,11111222 
TABS,ioos:station:wmo:42050:1,2002-09-02T16:30:00Z,28.8425,-94.2433,-2.0,29.87,11111222 
TABS,ioos:station:wmo:42050:1,2002-09-02T17:00:00Z,28.8425,-94.2433,-2.0,29.89,11111222 
TABS,ioos:station:wmo:42050:1,2002-09-02T17:30:00Z,28.8425,-94.2433,-2.0,29.92,11111222 
TABS,ioos:station:wmo:42050:1,2002-09-02T18:00:00Z,28.8425,-94.2433,-2.0,29.94,11111222 
TABS,ioos:station:wmo:42050:1,2002-09-02T18:30:00Z,28.8425,-94.2433,-2.0,29.97,11111222 
TABS,ioos:station:wmo:42050:1,2002-09-02T19:00:00Z,28.8425,-94.2433,-2.0,29.98,11111222 
TABS,ioos:station:wmo:42050:1,2002-09-02T19:30:00Z,28.8425,-94.2433,-2.0,30.0,11111222 
TABS,ioos:station:wmo:42050:1,2002-09-02T20:00:00Z,28.8425,-94.2433,-2.0,29.99,11111222 
TABS,ioos:station:wmo:42050:1,2002-09-02T20:30:00Z,28.8425,-94.2433,-2.0,30.02,11111222 
TABS,ioos:station:wmo:42050:1,2002-09-02T21:00:00Z,28.8425,-94.2433,-2.0,30.0,11111222 
TABS,ioos:station:wmo:42050:1,2002-09-02T21:30:00Z,28.8425,-94.2433,-2.0,30.06,11111222 
TABS,ioos:station:wmo:42050:1,2002-09-02T22:00:00Z,28.8425,-94.2433,-2.0,30.07,11111222 
TABS,ioos:station:wmo:42050:1,2002-09-02T22:30:00Z,28.8425,-94.2433,-2.0,30.07,11111222 
TABS,ioos:station:wmo:42050:1,2002-09-02T23:00:00Z,28.8425,-94.2433,-2.0,30.08,11111222 
TABS,ioos:station:wmo:42050:1,2002-09-02T23:30:00Z,28.8425,-94.2433,-2.0,30.06,11111222 
TABS,ioos:station:wmo:42050:1,2002-09-03T00:00:00Z,28.8425,-94.2433,-2.0,30.03,11111222 
TABS,ioos:station:wmo:42050:1,2002-09-03T00:30:00Z,28.8425,-94.2433,-2.0,30.01,11111222 
TABS,ioos:station:wmo:42050:1,2002-09-03T01:00:00Z,28.8425,-94.2433,-2.0,29.99,11111222 
TABS,ioos:station:wmo:42050:1,2002-09-03T01:30:00Z,28.8425,-94.2433,-2.0,29.97,11111222 
TABS,ioos:station:wmo:42050:1,2002-09-03T02:00:00Z,28.8425,-94.2433,-2.0,29.96,11111222 
TABS,ioos:station:wmo:42050:1,2002-09-03T02:30:00Z,28.8425,-94.2433,-2.0,29.95,11111222 
TABS,ioos:station:wmo:42050:1,2002-09-03T03:00:00Z,28.8425,-94.2433,-2.0,29.94,11111222 
TABS,ioos:station:wmo:42050:1,2002-09-03T03:30:00Z,28.8425,-94.2433,-2.0,29.92,11111222 
TABS,ioos:station:wmo:42050:1,2002-09-03T04:00:00Z,28.8425,-94.2433,-2.0,29.91,11111222 
TABS,ioos:station:wmo:42050:1,2002-09-03T04:30:00Z,28.8425,-94.2433,-2.0,29.91,11111222 
TABS,ioos:station:wmo:42050:1,2002-09-03T05:00:00Z,28.8425,-94.2433,-2.0,29.92,11111222 
TABS,ioos:station:wmo:42050:1,2002-09-03T05:30:00Z,28.8425,-94.2433,-2.0,29.9,11111222 
TABS,ioos:station:wmo:42050:1,2002-09-03T06:00:00Z,28.8425,-94.2433,-2.0,29.9,11111222 
TABS,ioos:station:wmo:42050:1,2002-09-03T06:30:00Z,28.8425,-94.2433,-2.0,29.9,11111222 
TABS,ioos:station:wmo:42050:1,2002-09-03T07:00:00Z,28.8425,-94.2433,-2.0,29.9,11111222 
TABS,ioos:station:wmo:42050:1,2002-09-03T07:30:00Z,28.8425,-94.2433,-2.0,29.89,11111222 
TABS,ioos:station:wmo:42050:1,2002-09-03T08:00:00Z,28.8425,-94.2433,-2.0,29.88,11111222 
TABS,ioos:station:wmo:42050:1,2002-09-03T08:30:00Z,28.8425,-94.2433,-2.0,29.87,11111222 
TABS,ioos:station:wmo:42050:1,2002-09-03T09:00:00Z,28.8425,-94.2433,-2.0,29.87,11111222 
TABS,ioos:station:wmo:42050:1,2002-09-03T09:30:00Z,28.8425,-94.2433,-2.0,29.87,11111222 
TABS,ioos:station:wmo:42050:1,2002-09-03T10:00:00Z,28.8425,-94.2433,-2.0,29.87,11111222 
TABS,ioos:station:wmo:42050:1,2002-09-03T10:30:00Z,28.8425,-94.2433,-2.0,29.85,11111222 
TABS,ioos:station:wmo:42050:1,2002-09-03T11:00:00Z,28.8425,-94.2433,-2.0,29.83,11111222 
TABS,ioos:station:wmo:42050:1,2002-09-03T11:30:00Z,28.8425,-94.2433,-2.0,29.82,11111222 
TABS,ioos:station:wmo:42050:1,2002-09-03T12:00:00Z,28.8425,-94.2433,-2.0,29.76,11111222 
TABS,ioos:station:wmo:42050:1,2002-09-03T12:30:00Z,28.8425,-94.2433,-2.0,29.75,11111222 
TABS,ioos:station:wmo:42050:1,2002-09-03T13:00:00Z,28.8425,-94.2433,-2.0,29.73,11111222 
TABS,ioos:station:wmo:42050:1,2002-09-03T13:30:00Z,28.8425,-94.2433,-2.0,29.72,11111222 
TABS,ioos:station:wmo:42050:1,2002-09-03T14:00:00Z,28.8425,-94.2433,-2.0,29.73,11111222 
TABS,ioos:station:wmo:42050:1,2002-09-03T14:30:00Z,28.8425,-94.2433,-2.0,29.76,11111222 
TABS,ioos:station:wmo:42050:1,2002-09-03T15:00:00Z,28.8425,-94.2433,-2.0,29.78,11111222 
TABS,ioos:station:wmo:42050:1,2002-09-03T15:30:00Z,28.8425,-94.2433,-2.0,29.8,11111222 
TABS,ioos:station:wmo:42050:1,2002-09-03T16:00:00Z,28.8425,-94.2433,-2.0,29.82,11111222 
TABS,ioos:station:wmo:42050:1,2002-09-03T16:30:00Z,28.8425,-94.2433,-2.0,29.83,11111222 
TABS,ioos:station:wmo:42050:1,2002-09-03T17:00:00Z,28.8425,-94.2433,-2.0,29.85,11111222 
TABS,ioos:station:wmo:42050:1,2002-09-03T17:30:00Z,28.8425,-94.2433,-2.0,29.84,11111222 
TABS,ioos:station:wmo:42050:1,2002-09-03T18:00:00Z,28.8425,-94.2433,-2.0,29.83,11111222 
TABS,ioos:station:wmo:42050:1,2002-09-03T18:30:00Z,28.8425,-94.2433,-2.0,29.82,11111222 
TABS,ioos:station:wmo:42050:1,2002-09-03T19:00:00Z,28.8425,-94.2433,-2.0,29.82,11111222 
TABS,ioos:station:wmo:42050:1,2002-09-03T19:30:00Z,28.8425,-94.2433,-2.0,29.82,11111222 
TABS,ioos:station:wmo:42050:1,2002-09-03T20:00:00Z,28.8425,-94.2433,-2.0,29.82,11111222 
TABS,ioos:station:wmo:42050:1,2002-09-03T20:30:00Z,28.8425,-94.2433,-2.0,29.82,11111222 
TABS,ioos:station:wmo:42050:1,2002-09-03T21:00:00Z,28.8425,-94.2433,-2.0,29.82,11111222 
TABS,ioos:station:wmo:42050:1,2002-09-03T21:30:00Z,28.8425,-94.2433,-2.0,29.79,11111222 
TABS,ioos:station:wmo:42050:1,2002-09-03T22:00:00Z,28.8425,-94.2433,-2.0,29.77,11111222 
TABS,ioos:station:wmo:42050:1,2002-09-03T22:30:00Z,28.8425,-94.2433,-2.0,29.76,11111222 
TABS,ioos:station:wmo:42050:1,2002-09-03T23:00:00Z,28.8425,-94.2433,-2.0,29.76,11111222 
TABS,ioos:station:wmo:42050:1,2002-09-03T23:30:00Z,28.8425,-94.2433,-2.0,29.72,11111222 
TABS,ioos:station:wmo:42050:1,2002-09-04T00:00:00Z,28.8425,-94.2433,-2.0,29.71,11111222 
TABS,ioos:station:wmo:42050:1,2002-09-04T00:30:00Z,28.8425,-94.2433,-2.0,29.7,11111222 
TABS,ioos:station:wmo:42050:1,2002-09-04T01:00:00Z,28.8425,-94.2433,-2.0,29.67,11111222 
TABS,ioos:station:wmo:42050:1,2002-09-04T01:30:00Z,28.8425,-94.2433,-2.0,29.68,11111222 
TABS,ioos:station:wmo:42050:1,2002-09-04T02:00:00Z,28.8425,-94.2433,-2.0,29.65,11111222 
TABS,ioos:station:wmo:42050:1,2002-09-04T02:30:00Z,28.8425,-94.2433,-2.0,29.64,11111222 
TABS,ioos:station:wmo:42050:1,2002-09-04T03:00:00Z,28.8425,-94.2433,-2.0,29.64,11111222 
TABS,ioos:station:wmo:42050:1,2002-09-04T03:30:00Z,28.8425,-94.2433,-2.0,29.63,11111222 
TABS,ioos:station:wmo:42050:1,2002-09-04T04:00:00Z,28.8425,-94.2433,-2.0,29.63,11111222 
TABS,ioos:station:wmo:42050:1,2002-09-04T04:30:00Z,28.8425,-94.2433,-2.0,29.65,11111222 
TABS,ioos:station:wmo:42050:1,2002-09-04T05:00:00Z,28.8425,-94.2433,-2.0,29.66,11111222 
TABS,ioos:station:wmo:42050:1,2002-09-04T05:30:00Z,28.8425,-94.2433,-2.0,29.66,11111222 
TABS,ioos:station:wmo:42050:1,2002-09-04T06:00:00Z,28.8425,-94.2433,-2.0,29.66,11111222 
TABS,ioos:station:wmo:42050:1,2002-09-04T06:30:00Z,28.8425,-94.2433,-2.0,29.65,11111222 
TABS,ioos:station:wmo:42050:1,2002-09-04T07:00:00Z,28.8425,-94.2433,-2.0,29.63,11111222 
TABS,ioos:station:wmo:42050:1,2002-09-04T07:30:00Z,28.8425,-94.2433,-2.0,29.63,11111222 
TABS,ioos:station:wmo:42050:1,2002-09-04T08:00:00Z,28.8425,-94.2433,-2.0,29.63,11111222 
TABS,ioos:station:wmo:42050:1,2002-09-04T08:30:00Z,28.8425,-94.2433,-2.0,29.63,11111222 
TABS,ioos:station:wmo:42050:1,2002-09-04T09:00:00Z,28.8425,-94.2433,-2.0,29.62,11111222 
TABS,ioos:station:wmo:42050:1,2002-09-04T09:30:00Z,28.8425,-94.2433,-2.0,29.61,11111222 
TABS,ioos:station:wmo:42050:1,2002-09-04T10:00:00Z,28.8425,-94.2433,-2.0,29.61,11111222 
TABS,ioos:station:wmo:42050:1,2002-09-04T10:30:00Z,28.8425,-94.2433,-2.0,29.6,11111222 
TABS,ioos:station:wmo:42050:1,2002-09-04T11:00:00Z,28.8425,-94.2433,-2.0,29.57,11111222 
TABS,ioos:station:wmo:42050:1,2002-09-04T11:30:00Z,28.8425,-94.2433,-2.0,29.53,11111222 
TABS,ioos:station:wmo:42050:1,2002-09-04T12:00:00Z,28.8425,-94.2433,-2.0,29.49,11111222 
TABS,ioos:station:wmo:42050:1,2002-09-04T12:30:00Z,28.8425,-94.2433,-2.0,29.5,11111222 
TABS,ioos:station:wmo:42050:1,2002-09-04T13:00:00Z,28.8425,-94.2433,-2.0,29.46,11111222 
TABS,ioos:station:wmo:42050:1,2002-09-04T13:30:00Z,28.8425,-94.2433,-2.0,29.51,11111222 
TABS,ioos:station:wmo:42050:1,2002-09-04T14:00:00Z,28.8425,-94.2433,-2.0,29.52,11111222 
TABS,ioos:station:wmo:42050:1,2002-09-04T14:30:00Z,28.8425,-94.2433,-2.0,29.5,11111222 
TABS,ioos:station:wmo:42050:1,2002-09-04T15:00:00Z,28.8425,-94.2433,-2.0,29.46,11111222 
TABS,ioos:station:wmo:42050:1,2002-09-04T15:30:00Z,28.8425,-94.2433,-2.0,29.47,11111222 
TABS,ioos:station:wmo:42050:1,2002-09-04T16:00:00Z,28.8425,-94.2433,-2.0,29.5,11111222 
TABS,ioos:station:wmo:42050:1,2002-09-04T16:30:00Z,28.8425,-94.2433,-2.0,29.51,11111222 
TABS,ioos:station:wmo:42050:1,2002-09-04T17:00:00Z,28.8425,-94.2433,-2.0,29.52,11111222 
TABS,ioos:station:wmo:42050:1,2002-09-04T17:30:00Z,28.8425,-94.2433,-2.0,29.52,11111222 
TABS,ioos:station:wmo:42050:1,2002-09-04T18:00:00Z,28.8425,-94.2433,-2.0,29.51,11111222 
TABS,ioos:station:wmo:42050:1,2002-09-04T18:30:00Z,28.8425,-94.2433,-2.0,29.55,11111222 
TABS,ioos:station:wmo:42050:1,2002-09-04T19:00:00Z,28.8425,-94.2433,-2.0,29.51,11111222 
TABS,ioos:station:wmo:42050:1,2002-09-04T19:30:00Z,28.8425,-94.2433,-2.0,29.5,11111222 
TABS,ioos:station:wmo:42050:1,2002-09-04T20:00:00Z,28.8425,-94.2433,-2.0,29.47,11111222 
TABS,ioos:station:wmo:42050:1,2002-09-04T20:30:00Z,28.8425,-94.2433,-2.0,29.46,11111222 
TABS,ioos:station:wmo:42050:1,2002-09-04T21:00:00Z,28.8425,-94.2433,-2.0,29.48,11111222 
TABS,ioos:station:wmo:42050:1,2002-09-04T21:30:00Z,28.8425,-94.2433,-2.0,29.49,11111222 
TABS,ioos:station:wmo:42050:1,2002-09-04T22:00:00Z,28.8425,-94.2433,-2.0,29.48,11111222 
TABS,ioos:station:wmo:42050:1,2002-09-04T22:30:00Z,28.8425,-94.2433,-2.0,29.53,11111222 
TABS,ioos:station:wmo:42050:1,2002-09-04T23:00:00Z,28.8425,-94.2433,-2.0,29.52,11111222 
TABS,ioos:station:wmo:42050:1,2002-09-04T23:30:00Z,28.8425,-94.2433,-2.0,29.49,11111222 
TABS,ioos:station:wmo:42050:1,2002-09-05T00:00:00Z,28.8425,-94.2433,-2.0,29.47,11111222 
TABS,ioos:station:wmo:42050:1,2002-09-05T00:30:00Z,28.8425,-94.2433,-2.0,29.45,11111222 
TABS,ioos:station:wmo:42050:1,2002-09-05T01:00:00Z,28.8425,-94.2433,-2.0,29.47,11111222 
TABS,ioos:station:wmo:42050:1,2002-09-05T01:30:00Z,28.8425,-94.2433,-2.0,29.49,11111222 
TABS,ioos:station:wmo:42050:1,2002-09-05T02:00:00Z,28.8425,-94.2433,-2.0,29.48,11111222 
TABS,ioos:station:wmo:42050:1,2002-09-05T02:30:00Z,28.8425,-94.2433,-2.0,29.43,11111222 
TABS,ioos:station:wmo:42050:1,2002-09-05T03:00:00Z,28.8425,-94.2433,-2.0,29.42,11111222 
TABS,ioos:station:wmo:42050:1,2002-09-05T03:30:00Z,28.8425,-94.2433,-2.0,29.42,11111222 
TABS,ioos:station:wmo:42050:1,2002-09-05T04:00:00Z,28.8425,-94.2433,-2.0,29.43,11111222 
TABS,ioos:station:wmo:42050:1,2002-09-05T04:30:00Z,28.8425,-94.2433,-2.0,29.43,11111222 
TABS,ioos:station:wmo:42050:1,2002-09-05T05:00:00Z,28.8425,-94.2433,-2.0,29.44,11111222 
TABS,ioos:station:wmo:42050:1,2002-09-05T05:30:00Z,28.8425,-94.2433,-2.0,29.46,11111222 
TABS,ioos:station:wmo:42050:1,2002-09-05T06:00:00Z,28.8425,-94.2433,-2.0,29.46,11111222 
TABS,ioos:station:wmo:42050:1,2002-09-05T06:30:00Z,28.8425,-94.2433,-2.0,29.46,11111222 
TABS,ioos:station:wmo:42050:1,2002-09-05T07:00:00Z,28.8425,-94.2433,-2.0,29.46,11111222 
TABS,ioos:station:wmo:42050:1,2002-09-05T07:30:00Z,28.8425,-94.2433,-2.0,29.47,11111222 
TABS,ioos:station:wmo:42050:1,2002-09-05T08:00:00Z,28.8425,-94.2433,-2.0,29.46,11111222 
TABS,ioos:station:wmo:42050:1,2002-09-05T08:30:00Z,28.8425,-94.2433,-2.0,29.46,11111222 
TABS,ioos:station:wmo:42050:1,2002-09-05T09:00:00Z,28.8425,-94.2433,-2.0,29.44,11111222 
TABS,ioos:station:wmo:42050:1,2002-09-05T09:30:00Z,28.8425,-94.2433,-2.0,29.44,11111222 
TABS,ioos:station:wmo:42050:1,2002-09-05T10:00:00Z,28.8425,-94.2433,-2.0,29.43,11111222 
TABS,ioos:station:wmo:42050:1,2002-09-05T10:30:00Z,28.8425,-94.2433,-2.0,29.43,11111222 
TABS,ioos:station:wmo:42050:1,2002-09-05T11:00:00Z,28.8425,-94.2433,-2.0,29.38,11111222 
TABS,ioos:station:wmo:42050:1,2002-09-05T11:30:00Z,28.8425,-94.2433,-2.0,29.38,11111222 
TABS,ioos:station:wmo:42050:1,2002-09-05T12:00:00Z,28.8425,-94.2433,-2.0,29.37,11111222 
TABS,ioos:station:wmo:42050:1,2002-09-05T12:30:00Z,28.8425,-94.2433,-2.0,29.38,11111222 
TABS,ioos:station:wmo:42050:1,2002-09-05T13:00:00Z,28.8425,-94.2433,-2.0,29.38,11111222 
TABS,ioos:station:wmo:42050:1,2002-09-05T13:30:00Z,28.8425,-94.2433,-2.0,29.37,11111222 
TABS,ioos:station:wmo:42050:1,2002-09-05T14:00:00Z,28.8425,-94.2433,-2.0,29.38,11111222 
TABS,ioos:station:wmo:42050:1,2002-09-05T14:30:00Z,28.8425,-94.2433,-2.0,29.36,11111222 
TABS,ioos:station:wmo:42050:1,2002-09-05T15:00:00Z,28.8425,-94.2433,-2.0,29.36,11111222 
TABS,ioos:station:wmo:42050:1,2002-09-05T15:30:00Z,28.8425,-94.2433,-2.0,29.35,11111222 
TABS,ioos:station:wmo:42050:1,2002-09-05T16:00:00Z,28.8425,-94.2433,-2.0,29.33,11111222 
TABS,ioos:station:wmo:42050:1,2002-09-05T16:30:00Z,28.8425,-94.2433,-2.0,29.35,11111222 
TABS,ioos:station:wmo:42050:1,2002-09-16T11:30:00Z,28.8425,-94.2433,-2.0,28.5,11111222 
TABS,ioos:station:wmo:42050:1,2002-09-16T12:00:00Z,28.8425,-94.2433,-2.0,28.5,11111222 
TABS,ioos:station:wmo:42050:1,2002-09-25T11:00:00Z,28.8425,-94.2433,-2.0,27.95,11111222 
TABS,ioos:station:wmo:42050:1,2002-09-25T11:30:00Z,28.8425,-94.2433,-2.0,27.94,11111222 
TABS,ioos:station:wmo:42050:1,2002-09-25T12:00:00Z,28.8425,-94.2433,-2.0,27.94,11111222 
TABS,ioos:station:wmo:42050:1,2002-09-25T12:30:00Z,28.8425,-94.2433,-2.0,27.94,11111222 
TABS,ioos:station:wmo:42050:1,2002-09-25T13:00:00Z,28.8425,-94.2433,-2.0,27.89,11111222 
TABS,ioos:station:wmo:42050:1,2002-09-25T13:30:00Z,28.8425,-94.2433,-2.0,27.85,11111222 
TABS,ioos:station:wmo:42050:1,2002-09-25T14:00:00Z,28.8425,-94.2433,-2.0,27.74,11111222 
TABS,ioos:station:wmo:42050:1,2002-09-25T14:30:00Z,28.8425,-94.2433,-2.0,27.74,11111222 
TABS,ioos:station:wmo:42050:1,2002-09-25T15:00:00Z,28.8425,-94.2433,-2.0,27.71,11111222 
TABS,ioos:station:wmo:42050:1,2002-09-25T15:30:00Z,28.8425,-94.2433,-2.0,27.7,11111222 
TABS,ioos:station:wmo:42050:1,2002-09-25T16:00:00Z,28.8425,-94.2433,-2.0,27.7,11111222 
TABS,ioos:station:wmo:42050:1,2002-09-25T16:30:00Z,28.8425,-94.2433,-2.0,27.71,11111222 
TABS,ioos:station:wmo:42050:1,2002-09-25T17:00:00Z,28.8425,-94.2433,-2.0,27.73,11111222 
TABS,ioos:station:wmo:42050:1,2002-09-25T17:30:00Z,28.8425,-94.2433,-2.0,27.74,11111222 
TABS,ioos:station:wmo:42050:1,2002-09-25T18:00:00Z,28.8425,-94.2433,-2.0,27.75,11111222 
TABS,ioos:station:wmo:42050:1,2002-09-25T18:30:00Z,28.8425,-94.2433,-2.0,27.75,11111222 
TABS,ioos:station:wmo:42050:1,2002-09-25T19:00:00Z,28.8425,-94.2433,-2.0,27.75,11111222 
TABS,ioos:station:wmo:42050:1,2002-09-25T19:30:00Z,28.8425,-94.2433,-2.0,27.73,11111222 
TABS,ioos:station:wmo:42050:1,2002-09-25T20:00:00Z,28.8425,-94.2433,-2.0,27.72,11111222 
TABS,ioos:station:wmo:42050:1,2002-09-25T20:30:00Z,28.8425,-94.2433,-2.0,27.7,11111222 
TABS,ioos:station:wmo:42050:1,2002-09-25T21:00:00Z,28.8425,-94.2433,-2.0,27.69,11111222 
TABS,ioos:station:wmo:42050:1,2002-09-25T21:30:00Z,28.8425,-94.2433,-2.0,27.67,11111222 
TABS,ioos:station:wmo:42050:1,2002-09-25T22:00:00Z,28.8425,-94.2433,-2.0,27.66,11111222 
TABS,ioos:station:wmo:42050:1,2002-09-25T22:30:00Z,28.8425,-94.2433,-2.0,27.64,11111222 
TABS,ioos:station:wmo:42050:1,2002-09-25T23:00:00Z,28.8425,-94.2433,-2.0,27.63,11111222 
TABS,ioos:station:wmo:42050:1,2002-09-25T23:30:00Z,28.8425,-94.2433,-2.0,27.62,11111222 
TABS,ioos:station:wmo:42050:1,2002-09-26T00:00:00Z,28.8425,-94.2433,-2.0,27.61,11111222 
TABS,ioos:station:wmo:42050:1,2002-09-26T00:30:00Z,28.8425,-94.2433,-2.0,27.59,11111222 
TABS,ioos:station:wmo:42050:1,2002-09-26T01:00:00Z,28.8425,-94.2433,-2.0,27.58,11111222 
TABS,ioos:station:wmo:42050:1,2002-09-26T01:30:00Z,28.8425,-94.2433,-2.0,27.58,11111222 
TABS,ioos:station:wmo:42050:1,2002-09-26T02:00:00Z,28.8425,-94.2433,-2.0,27.56,11111222 
TABS,ioos:station:wmo:42050:1,2002-09-26T02:30:00Z,28.8425,-94.2433,-2.0,27.55,11111222 
TABS,ioos:station:wmo:42050:1,2002-09-26T03:00:00Z,28.8425,-94.2433,-2.0,27.54,11111222 
TABS,ioos:station:wmo:42050:1,2002-09-26T03:30:00Z,28.8425,-94.2433,-2.0,27.53,11111222 
TABS,ioos:station:wmo:42050:1,2002-09-26T04:00:00Z,28.8425,-94.2433,-2.0,27.53,11111222 
TABS,ioos:station:wmo:42050:1,2002-09-26T04:30:00Z,28.8425,-94.2433,-2.0,27.51,11111222 
TABS,ioos:station:wmo:42050:1,2002-09-26T05:00:00Z,28.8425,-94.2433,-2.0,27.49,11111222 
TABS,ioos:station:wmo:42050:1,2002-09-26T05:30:00Z,28.8425,-94.2433,-2.0,27.49,11111222 
TABS,ioos:station:wmo:42050:1,2002-09-26T06:00:00Z,28.8425,-94.2433,-2.0,27.48,11111222 
TABS,ioos:station:wmo:42050:1,2002-09-26T06:30:00Z,28.8425,-94.2433,-2.0,27.48,11111222 
TABS,ioos:station:wmo:42050:1,2002-09-26T07:00:00Z,28.8425,-94.2433,-2.0,27.46,11111222 
TABS,ioos:station:wmo:42050:1,2002-09-26T07:30:00Z,28.8425,-94.2433,-2.0,27.46,11111222 
TABS,ioos:station:wmo:42050:1,2002-09-26T08:00:00Z,28.8425,-94.2433,-2.0,27.47,11111222 
TABS,ioos:station:wmo:42050:1,2002-09-26T08:30:00Z,28.8425,-94.2433,-2.0,27.45,11111222 
TABS,ioos:station:wmo:42050:1,2002-09-26T09:00:00Z,28.8425,-94.2433,-2.0,27.44,11111222 
TABS,ioos:station:wmo:42050:1,2002-09-26T09:30:00Z,28.8425,-94.2433,-2.0,27.44,11111222 
TABS,ioos:station:wmo:42050:1,2002-09-26T10:00:00Z,28.8425,-94.2433,-2.0,27.42,11111222 
TABS,ioos:station:wmo:42050:1,2002-09-26T10:30:00Z,28.8425,-94.2433,-2.0,27.43,11111222 
TABS,ioos:station:wmo:42050:1,2002-09-26T11:00:00Z,28.8425,-94.2433,-2.0,27.43,11111222 
TABS,ioos:station:wmo:42050:1,2002-09-26T11:30:00Z,28.8425,-94.2433,-2.0,27.41,11111222 
TABS,ioos:station:wmo:42050:1,2002-09-26T12:00:00Z,28.8425,-94.2433,-2.0,27.41,11111222 